Year,Month,Day,Hour,Minute,Value (Times are PST for temperature in C)
2011,10,15,00,00,3.90
2011,10,15,00,01,3.90
2011,10,15,00,02,3.90
2011,10,15,00,03,3.80
2011,10,15,00,04,3.80
2011,10,15,00,05,3.80
2011,10,15,00,06,3.80
2011,10,15,00,07,3.80
2011,10,15,00,08,3.80
2011,10,15,00,09,3.80
2011,10,15,00,10,3.80
2011,10,15,00,11,3.80
2011,10,15,00,12,3.80
2011,10,15,00,13,3.70
2011,10,15,00,14,3.70
2011,10,15,00,15,3.70
2011,10,15,00,16,3.70
2011,10,15,00,17,3.70
2011,10,15,00,18,3.70
2011,10,15,00,19,3.70
2011,10,15,00,20,3.70
2011,10,15,00,21,3.60
2011,10,15,00,22,3.60
2011,10,15,00,23,3.60
2011,10,15,00,24,3.60
2011,10,15,00,25,3.60
2011,10,15,00,26,3.60
2011,10,15,00,27,3.50
2011,10,15,00,28,3.50
2011,10,15,00,29,3.50
2011,10,15,00,30,3.50
2011,10,15,00,31,3.50
2011,10,15,00,32,3.50
2011,10,15,00,33,3.50
2011,10,15,00,34,3.50
2011,10,15,00,35,3.50
2011,10,15,00,36,3.40
2011,10,15,00,37,3.40
2011,10,15,00,38,3.40
2011,10,15,00,39,3.40
2011,10,15,00,40,3.40
2011,10,15,00,41,3.40
2011,10,15,00,42,3.40
2011,10,15,00,43,3.40
2011,10,15,00,44,3.30
2011,10,15,00,45,3.30
2011,10,15,00,46,3.30
2011,10,15,00,47,3.30
2011,10,15,00,48,3.30
2011,10,15,00,49,3.30
2011,10,15,00,50,3.30
2011,10,15,00,51,3.30
2011,10,15,00,52,3.30
2011,10,15,00,53,3.30
2011,10,15,00,54,3.30
2011,10,15,00,55,3.30
2011,10,15,00,56,3.30
2011,10,15,00,57,3.30
2011,10,15,00,58,3.30
2011,10,15,00,59,3.20
2011,10,15,01,00,3.20
2011,10,15,01,01,3.20
2011,10,15,01,02,3.20
2011,10,15,01,03,3.20
2011,10,15,01,04,3.20
2011,10,15,01,05,3.20
2011,10,15,01,06,3.10
2011,10,15,01,07,3.10
2011,10,15,01,08,3.10
2011,10,15,01,09,3.10
2011,10,15,01,10,3.10
2011,10,15,01,11,3.10
2011,10,15,01,12,3.10
2011,10,15,01,13,3.10
2011,10,15,01,14,3.10
2011,10,15,01,15,3.00
2011,10,15,01,16,3.00
2011,10,15,01,17,3.00
2011,10,15,01,18,3.00
2011,10,15,01,19,3.00
2011,10,15,01,20,3.00
2011,10,15,01,21,3.00
2011,10,15,01,22,3.00
2011,10,15,01,23,2.90
2011,10,15,01,24,2.90
2011,10,15,01,25,2.90
2011,10,15,01,26,2.90
2011,10,15,01,27,2.90
2011,10,15,01,28,2.90
2011,10,15,01,29,2.90
2011,10,15,01,30,2.90
2011,10,15,01,31,2.90
2011,10,15,01,32,2.90
2011,10,15,01,33,2.90
2011,10,15,01,34,2.90
2011,10,15,01,35,2.90
2011,10,15,01,36,2.90
2011,10,15,01,37,2.90
2011,10,15,01,38,2.80
2011,10,15,01,39,2.80
2011,10,15,01,40,2.80
2011,10,15,01,41,2.80
2011,10,15,01,42,2.80
2011,10,15,01,43,2.80
2011,10,15,01,44,2.80
2011,10,15,01,45,2.80
2011,10,15,01,46,2.80
2011,10,15,01,47,2.80
2011,10,15,01,48,2.80
2011,10,15,01,49,2.80
2011,10,15,01,50,2.80
2011,10,15,01,51,2.80
2011,10,15,01,52,2.80
2011,10,15,01,53,2.80
2011,10,15,01,54,2.80
2011,10,15,01,55,2.80
2011,10,15,01,56,2.80
2011,10,15,01,57,2.80
2011,10,15,01,58,2.80
2011,10,15,01,59,2.80
2011,10,15,02,00,2.80
2011,10,15,02,01,2.80
2011,10,15,02,02,2.80
2011,10,15,02,03,2.80
2011,10,15,02,04,2.80
2011,10,15,02,05,2.80
2011,10,15,02,06,2.80
2011,10,15,02,07,2.80
2011,10,15,02,08,2.80
2011,10,15,02,09,2.80
2011,10,15,02,10,2.80
2011,10,15,02,11,2.80
2011,10,15,02,12,2.80
2011,10,15,02,13,2.80
2011,10,15,02,14,2.70
2011,10,15,02,15,2.70
2011,10,15,02,16,2.70
2011,10,15,02,17,2.70
2011,10,15,02,18,2.70
2011,10,15,02,19,2.60
2011,10,15,02,20,2.60
2011,10,15,02,21,2.60
2011,10,15,02,22,2.60
2011,10,15,02,23,2.60
2011,10,15,02,24,2.60
2011,10,15,02,25,2.60
2011,10,15,02,26,2.50
2011,10,15,02,27,2.50
2011,10,15,02,28,2.50
2011,10,15,02,29,2.50
2011,10,15,02,30,2.50
2011,10,15,02,31,2.50
2011,10,15,02,32,2.50
2011,10,15,02,33,2.50
2011,10,15,02,34,2.50
2011,10,15,02,35,2.50
2011,10,15,02,36,2.40
2011,10,15,02,37,2.40
2011,10,15,02,38,2.40
2011,10,15,02,39,2.40
2011,10,15,02,40,2.40
2011,10,15,02,41,2.40
2011,10,15,02,42,2.40
2011,10,15,02,43,2.40
2011,10,15,02,44,2.40
2011,10,15,02,45,2.40
2011,10,15,02,46,2.30
2011,10,15,02,47,2.30
2011,10,15,02,48,2.30
2011,10,15,02,49,2.30
2011,10,15,02,50,2.30
2011,10,15,02,51,2.30
2011,10,15,02,52,2.30
2011,10,15,02,53,2.30
2011,10,15,02,54,2.20
2011,10,15,02,55,2.20
2011,10,15,02,56,2.20
2011,10,15,02,57,2.20
2011,10,15,02,58,2.20
2011,10,15,02,59,2.20
2011,10,15,03,00,2.20
2011,10,15,03,01,2.20
2011,10,15,03,02,2.20
2011,10,15,03,03,2.20
2011,10,15,03,04,2.20
2011,10,15,03,05,2.20
2011,10,15,03,06,2.20
2011,10,15,03,07,2.20
2011,10,15,03,08,2.10
2011,10,15,03,09,2.10
2011,10,15,03,10,2.10
2011,10,15,03,11,2.10
2011,10,15,03,12,2.10
2011,10,15,03,13,2.10
2011,10,15,03,14,2.10
2011,10,15,03,15,2.10
2011,10,15,03,16,2.10
2011,10,15,03,17,2.10
2011,10,15,03,18,2.10
2011,10,15,03,19,2.10
2011,10,15,03,20,2.10
2011,10,15,03,21,2.10
2011,10,15,03,22,2.10
2011,10,15,03,23,2.10
2011,10,15,03,24,2.10
2011,10,15,03,25,2.10
2011,10,15,03,26,2.10
2011,10,15,03,27,2.10
2011,10,15,03,28,2.10
2011,10,15,03,29,2.10
2011,10,15,03,30,2.10
2011,10,15,03,31,2.10
2011,10,15,03,32,2.10
2011,10,15,03,33,2.10
2011,10,15,03,34,2.10
2011,10,15,03,35,2.10
2011,10,15,03,36,2.10
2011,10,15,03,37,2.10
2011,10,15,03,38,2.10
2011,10,15,03,39,2.10
2011,10,15,03,40,2.10
2011,10,15,03,41,2.10
2011,10,15,03,42,2.10
2011,10,15,03,43,2.10
2011,10,15,03,44,2.00
2011,10,15,03,45,2.00
2011,10,15,03,46,2.00
2011,10,15,03,47,2.00
2011,10,15,03,48,1.90
2011,10,15,03,49,1.90
2011,10,15,03,50,1.90
2011,10,15,03,51,2.00
2011,10,15,03,52,2.00
2011,10,15,03,53,2.00
2011,10,15,03,54,2.00
2011,10,15,03,55,2.00
2011,10,15,03,56,2.00
2011,10,15,03,57,2.00
2011,10,15,03,58,2.00
2011,10,15,03,59,2.00
2011,10,15,04,00,2.00
2011,10,15,04,01,2.00
2011,10,15,04,02,2.00
2011,10,15,04,03,1.90
2011,10,15,04,04,1.90
2011,10,15,04,05,1.90
2011,10,15,04,06,1.80
2011,10,15,04,07,1.80
2011,10,15,04,08,1.80
2011,10,15,04,09,1.80
2011,10,15,04,10,1.80
2011,10,15,04,11,1.70
2011,10,15,04,12,1.80
2011,10,15,04,13,1.80
2011,10,15,04,14,1.80
2011,10,15,04,15,1.80
2011,10,15,04,16,1.80
2011,10,15,04,17,1.80
2011,10,15,04,18,1.80
2011,10,15,04,19,1.80
2011,10,15,04,20,1.80
2011,10,15,04,21,1.80
2011,10,15,04,22,1.80
2011,10,15,04,23,1.80
2011,10,15,04,24,1.80
2011,10,15,04,25,1.80
2011,10,15,04,26,1.80
2011,10,15,04,27,1.80
2011,10,15,04,28,1.80
2011,10,15,04,29,1.80
2011,10,15,04,30,1.80
2011,10,15,04,31,1.90
2011,10,15,04,32,1.90
2011,10,15,04,33,2.00
2011,10,15,04,34,2.00
2011,10,15,04,35,2.10
2011,10,15,04,36,2.10
2011,10,15,04,37,2.10
2011,10,15,04,38,2.20
2011,10,15,04,39,2.20
2011,10,15,04,40,2.30
2011,10,15,04,41,2.30
2011,10,15,04,42,2.30
2011,10,15,04,43,2.30
2011,10,15,04,44,2.40
2011,10,15,04,45,2.40
2011,10,15,04,46,2.40
2011,10,15,04,47,2.40
2011,10,15,04,48,2.40
2011,10,15,04,49,2.30
2011,10,15,04,50,2.30
2011,10,15,04,51,2.30
2011,10,15,04,52,2.30
2011,10,15,04,53,2.30
2011,10,15,04,54,2.30
2011,10,15,04,55,2.20
2011,10,15,04,56,2.20
2011,10,15,04,57,2.20
2011,10,15,04,58,2.20
2011,10,15,04,59,2.20
2011,10,15,05,00,2.10
2011,10,15,05,01,2.10
2011,10,15,05,02,2.10
2011,10,15,05,03,2.10
2011,10,15,05,04,2.00
2011,10,15,05,05,2.00
2011,10,15,05,06,2.00
2011,10,15,05,07,1.90
2011,10,15,05,08,1.90
2011,10,15,05,09,1.90
2011,10,15,05,10,1.90
2011,10,15,05,11,1.80
2011,10,15,05,12,1.80
2011,10,15,05,13,1.80
2011,10,15,05,14,1.80
2011,10,15,05,15,1.80
2011,10,15,05,16,1.80
2011,10,15,05,17,1.80
2011,10,15,05,18,1.80
2011,10,15,05,19,1.80
2011,10,15,05,20,1.80
2011,10,15,05,21,1.70
2011,10,15,05,22,1.70
2011,10,15,05,23,1.70
2011,10,15,05,24,1.70
2011,10,15,05,25,1.70
2011,10,15,05,26,1.70
2011,10,15,05,27,1.70
2011,10,15,05,28,1.70
2011,10,15,05,29,1.70
2011,10,15,05,30,1.70
2011,10,15,05,31,1.70
2011,10,15,05,32,1.70
2011,10,15,05,33,1.60
2011,10,15,05,34,1.60
2011,10,15,05,35,1.60
2011,10,15,05,36,1.60
2011,10,15,05,37,1.60
2011,10,15,05,38,1.60
2011,10,15,05,39,1.60
2011,10,15,05,40,1.60
2011,10,15,05,41,1.50
2011,10,15,05,42,1.50
2011,10,15,05,43,1.50
2011,10,15,05,44,1.50
2011,10,15,05,45,1.50
2011,10,15,05,46,1.50
2011,10,15,05,47,1.50
2011,10,15,05,48,1.40
2011,10,15,05,49,1.40
2011,10,15,05,50,1.50
2011,10,15,05,51,1.50
2011,10,15,05,52,1.50
2011,10,15,05,53,1.50
2011,10,15,05,54,1.50
2011,10,15,05,55,1.50
2011,10,15,05,56,1.50
2011,10,15,05,57,1.50
2011,10,15,05,58,1.50
2011,10,15,05,59,1.50
2011,10,15,06,00,1.50
2011,10,15,06,01,1.50
2011,10,15,06,02,1.50
2011,10,15,06,03,1.40
2011,10,15,06,04,1.40
2011,10,15,06,05,1.40
2011,10,15,06,06,1.40
2011,10,15,06,07,1.40
2011,10,15,06,08,1.40
2011,10,15,06,09,1.30
2011,10,15,06,10,1.30
2011,10,15,06,11,1.30
2011,10,15,06,12,1.30
2011,10,15,06,13,1.30
2011,10,15,06,14,1.30
2011,10,15,06,15,1.30
2011,10,15,06,16,1.40
2011,10,15,06,17,1.40
2011,10,15,06,18,1.40
2011,10,15,06,19,1.40
2011,10,15,06,20,1.40
2011,10,15,06,21,1.40
2011,10,15,06,22,1.40
2011,10,15,06,23,1.40
2011,10,15,06,24,1.40
2011,10,15,06,25,1.40
2011,10,15,06,26,1.50
2011,10,15,06,27,1.50
2011,10,15,06,28,1.50
2011,10,15,06,29,1.50
2011,10,15,06,30,1.40
2011,10,15,06,31,1.40
2011,10,15,06,32,1.40
2011,10,15,06,33,1.50
2011,10,15,06,34,1.50
2011,10,15,06,35,1.40
2011,10,15,06,36,1.40
2011,10,15,06,37,1.40
2011,10,15,06,38,1.40
2011,10,15,06,39,1.40
2011,10,15,06,40,1.40
2011,10,15,06,41,1.40
2011,10,15,06,42,1.30
2011,10,15,06,43,1.30
2011,10,15,06,44,1.30
2011,10,15,06,45,1.30
2011,10,15,06,46,1.30
2011,10,15,06,47,1.30
2011,10,15,06,48,1.30
2011,10,15,06,49,1.30
2011,10,15,06,50,1.30
2011,10,15,06,51,1.30
2011,10,15,06,52,1.40
2011,10,15,06,53,1.40
2011,10,15,06,54,1.40
2011,10,15,06,55,1.40
2011,10,15,06,56,1.50
2011,10,15,06,57,1.50
2011,10,15,06,58,1.50
2011,10,15,06,59,1.50
2011,10,15,07,00,1.50
2011,10,15,07,01,1.50
2011,10,15,07,02,1.50
2011,10,15,07,03,1.50
2011,10,15,07,04,1.50
2011,10,15,07,05,1.50
2011,10,15,07,06,1.60
2011,10,15,07,07,1.50
2011,10,15,07,08,1.50
2011,10,15,07,09,1.50
2011,10,15,07,10,1.50
2011,10,15,07,11,1.40
2011,10,15,07,12,1.40
2011,10,15,07,13,1.40
2011,10,15,07,14,1.40
2011,10,15,07,15,1.40
2011,10,15,07,16,1.40
2011,10,15,07,17,1.30
2011,10,15,07,18,1.30
2011,10,15,07,19,1.30
2011,10,15,07,20,1.30
2011,10,15,07,21,1.40
2011,10,15,07,22,1.40
2011,10,15,07,23,1.50
2011,10,15,07,24,1.50
2011,10,15,07,25,1.60
2011,10,15,07,26,1.70
2011,10,15,07,27,1.90
2011,10,15,07,28,2.10
2011,10,15,07,29,2.40
2011,10,15,07,30,2.60
2011,10,15,07,31,2.80
2011,10,15,07,32,2.90
2011,10,15,07,33,3.10
2011,10,15,07,34,3.20
2011,10,15,07,35,3.30
2011,10,15,07,36,3.40
2011,10,15,07,37,3.40
2011,10,15,07,38,3.50
2011,10,15,07,39,3.60
2011,10,15,07,40,3.70
2011,10,15,07,41,3.70
2011,10,15,07,42,3.80
2011,10,15,07,43,3.80
2011,10,15,07,44,3.90
2011,10,15,07,45,3.90
2011,10,15,07,46,4.00
2011,10,15,07,47,4.10
2011,10,15,07,48,4.10
2011,10,15,07,49,4.10
2011,10,15,07,50,4.20
2011,10,15,07,51,4.20
2011,10,15,07,52,4.30
2011,10,15,07,53,4.30
2011,10,15,07,54,4.30
2011,10,15,07,55,4.30
2011,10,15,07,56,4.30
2011,10,15,07,57,4.30
2011,10,15,07,58,4.30
2011,10,15,07,59,4.30
2011,10,15,08,00,4.30
2011,10,15,08,01,4.30
2011,10,15,08,02,4.30
2011,10,15,08,03,4.20
2011,10,15,08,04,4.20
2011,10,15,08,05,4.20
2011,10,15,08,06,4.20
2011,10,15,08,07,4.20
2011,10,15,08,08,4.20
2011,10,15,08,09,4.20
2011,10,15,08,10,4.20
2011,10,15,08,11,4.20
2011,10,15,08,12,4.30
2011,10,15,08,13,4.30
2011,10,15,08,14,4.30
2011,10,15,08,15,4.30
2011,10,15,08,16,4.30
2011,10,15,08,17,4.40
2011,10,15,08,18,4.40
2011,10,15,08,19,4.50
2011,10,15,08,20,4.60
2011,10,15,08,21,4.70
2011,10,15,08,22,4.70
2011,10,15,08,23,4.70
2011,10,15,08,24,4.70
2011,10,15,08,25,4.70
2011,10,15,08,26,4.70
2011,10,15,08,27,4.70
2011,10,15,08,28,4.60
2011,10,15,08,29,4.70
2011,10,15,08,30,4.60
2011,10,15,08,31,4.60
2011,10,15,08,32,4.50
2011,10,15,08,33,4.50
2011,10,15,08,34,4.40
2011,10,15,08,35,4.40
2011,10,15,08,36,4.30
2011,10,15,08,37,4.30
2011,10,15,08,38,4.30
2011,10,15,08,39,4.40
2011,10,15,08,40,4.50
2011,10,15,08,41,4.60
2011,10,15,08,42,4.60
2011,10,15,08,43,4.70
2011,10,15,08,44,4.80
2011,10,15,08,45,4.80
2011,10,15,08,46,4.90
2011,10,15,08,47,5.00
2011,10,15,08,48,5.00
2011,10,15,08,49,5.10
2011,10,15,08,50,5.20
2011,10,15,08,51,5.20
2011,10,15,08,52,5.20
2011,10,15,08,53,5.30
2011,10,15,08,54,5.30
2011,10,15,08,55,5.40
2011,10,15,08,56,5.50
2011,10,15,08,57,5.50
2011,10,15,08,58,5.60
2011,10,15,08,59,5.70
2011,10,15,09,00,5.70
2011,10,15,09,01,5.80
2011,10,15,09,02,5.80
2011,10,15,09,03,5.90
2011,10,15,09,04,5.90
2011,10,15,09,05,6.00
2011,10,15,09,06,6.10
2011,10,15,09,07,6.10
2011,10,15,09,08,6.20
2011,10,15,09,09,6.30
2011,10,15,09,10,6.30
2011,10,15,09,11,6.40
2011,10,15,09,12,6.50
2011,10,15,09,13,6.50
2011,10,15,09,14,6.50
2011,10,15,09,15,6.60
2011,10,15,09,16,6.60
2011,10,15,09,17,6.60
2011,10,15,09,18,6.70
2011,10,15,09,19,6.70
2011,10,15,09,20,6.80
2011,10,15,09,21,6.80
2011,10,15,09,22,6.90
2011,10,15,09,23,6.90
2011,10,15,09,24,7.10
2011,10,15,16,33,11.70
2011,10,15,16,52,11.50
2011,10,15,16,53,11.50
2011,10,15,16,54,11.50
2011,10,15,16,55,11.50
2011,10,15,16,56,11.50
2011,10,15,16,57,11.50
2011,10,15,16,58,11.40
2011,10,15,16,59,11.40
2011,10,15,17,00,11.40
2011,10,15,17,01,11.40
2011,10,15,17,02,11.40
2011,10,15,17,03,11.40
2011,10,15,17,04,11.40
2011,10,15,17,05,11.40
2011,10,15,17,06,11.40
2011,10,15,17,07,11.30
2011,10,15,17,08,11.30
2011,10,15,17,09,11.30
2011,10,15,17,10,11.30
2011,10,15,17,11,11.30
2011,10,15,17,12,11.30
2011,10,15,17,13,11.30
2011,10,15,17,14,11.30
2011,10,15,17,15,11.30
2011,10,15,17,16,11.30
2011,10,15,17,17,11.30
2011,10,15,17,18,11.20
2011,10,15,17,19,11.20
2011,10,15,17,20,11.20
2011,10,15,17,21,11.20
2011,10,15,17,22,11.20
2011,10,15,17,23,11.10
2011,10,15,17,24,11.10
2011,10,15,17,25,11.10
2011,10,15,17,26,11.00
2011,10,15,17,27,11.00
2011,10,15,17,28,11.00
2011,10,15,17,29,11.00
2011,10,15,17,30,10.90
2011,10,15,17,31,10.90
2011,10,15,17,32,10.90
2011,10,15,17,33,10.90
2011,10,15,17,34,10.90
2011,10,15,17,35,10.80
2011,10,15,17,36,10.80
2011,10,15,17,37,10.80
2011,10,15,17,38,10.80
2011,10,15,17,39,10.80
2011,10,15,17,40,10.80
2011,10,15,17,41,10.80
2011,10,15,17,42,10.80
2011,10,15,17,43,10.70
2011,10,15,17,44,10.70
2011,10,15,17,45,10.70
2011,10,15,17,46,10.70
2011,10,15,17,47,10.70
2011,10,15,17,48,10.60
2011,10,15,17,49,10.60
2011,10,15,17,50,10.60
2011,10,15,17,51,10.60
2011,10,15,17,52,10.60
2011,10,15,17,53,10.50
2011,10,15,17,54,10.50
2011,10,15,17,55,10.50
2011,10,15,17,56,10.40
2011,10,15,17,57,10.40
2011,10,15,17,58,10.40
2011,10,15,17,59,10.40
2011,10,15,18,00,10.30
2011,10,15,18,01,10.30
2011,10,15,18,02,10.30
2011,10,15,18,03,10.30
2011,10,15,18,04,10.30
2011,10,15,18,05,10.30
2011,10,15,18,06,10.20
2011,10,15,18,07,10.20
2011,10,15,18,08,10.20
2011,10,15,18,09,10.20
2011,10,15,18,10,10.20
2011,10,15,18,11,10.10
2011,10,15,18,12,10.10
2011,10,15,18,13,10.10
2011,10,15,18,14,10.10
2011,10,15,18,15,10.00
2011,10,15,18,16,10.00
2011,10,15,18,17,10.00
2011,10,15,18,18,10.00
2011,10,15,18,19,9.90
2011,10,15,18,20,9.90
2011,10,15,18,21,9.90
2011,10,15,18,22,9.90
2011,10,15,18,23,9.80
2011,10,15,18,24,9.80
2011,10,15,18,25,9.80
2011,10,15,18,26,9.80
2011,10,15,18,27,9.80
2011,10,15,18,28,9.70
2011,10,15,18,29,9.70
2011,10,15,18,30,9.70
2011,10,15,18,31,9.70
2011,10,15,18,32,9.60
2011,10,15,18,33,9.60
2011,10,15,18,34,9.60
2011,10,15,18,35,9.60
2011,10,15,18,36,9.50
2011,10,15,18,37,9.50
2011,10,15,18,38,9.40
2011,10,15,18,39,9.40
2011,10,15,18,40,9.40
2011,10,15,18,41,9.30
2011,10,15,18,42,9.30
2011,10,15,18,43,9.20
2011,10,15,18,44,9.20
2011,10,15,18,45,9.10
2011,10,15,18,46,9.10
2011,10,15,18,47,9.00
2011,10,15,18,48,9.00
2011,10,15,18,49,8.90
2011,10,15,18,50,8.90
2011,10,15,18,51,8.90
2011,10,15,18,52,8.80
2011,10,15,18,53,8.80
2011,10,15,18,54,8.80
2011,10,15,18,55,8.80
2011,10,15,18,56,8.70
2011,10,15,18,57,8.70
2011,10,15,18,58,8.60
2011,10,15,18,59,8.60
2011,10,15,19,00,8.60
2011,10,15,19,01,8.50
2011,10,15,19,02,8.50
2011,10,15,19,03,8.50
2011,10,15,19,04,8.40
2011,10,15,19,05,8.40
2011,10,15,19,06,8.40
2011,10,15,19,07,8.30
2011,10,15,19,08,8.30
2011,10,15,19,09,8.30
2011,10,15,19,10,8.30
2011,10,15,19,11,8.20
2011,10,15,19,12,8.20
2011,10,15,19,13,8.20
2011,10,15,19,14,8.20
2011,10,15,19,15,8.20
2011,10,15,19,16,8.20
2011,10,15,19,17,8.20
2011,10,15,19,18,8.20
2011,10,15,19,19,8.10
2011,10,15,19,20,8.10
2011,10,15,19,21,8.10
2011,10,15,19,22,8.10
2011,10,15,19,23,8.10
2011,10,15,19,24,8.00
2011,10,15,19,25,8.00
2011,10,15,19,26,8.00
2011,10,15,19,27,7.90
2011,10,15,19,28,7.90
2011,10,15,19,29,7.90
2011,10,15,19,30,7.90
2011,10,15,19,31,7.80
2011,10,15,19,32,7.80
2011,10,15,19,33,7.80
2011,10,15,19,34,7.70
2011,10,15,19,35,7.70
2011,10,15,19,36,7.70
2011,10,15,19,37,7.70
2011,10,15,19,38,7.60
2011,10,15,19,39,7.60
2011,10,15,19,40,7.60
2011,10,15,19,41,7.60
2011,10,15,19,42,7.50
2011,10,15,19,43,7.50
2011,10,15,19,44,7.50
2011,10,15,19,45,7.40
2011,10,15,19,46,7.40
2011,10,15,19,47,7.40
2011,10,15,19,48,7.30
2011,10,15,19,49,7.30
2011,10,15,19,50,7.30
2011,10,15,19,51,7.20
2011,10,15,19,52,7.20
2011,10,15,19,53,7.20
2011,10,15,19,54,7.20
2011,10,15,19,55,7.20
2011,10,15,19,56,7.10
2011,10,15,19,57,7.10
2011,10,15,19,58,7.10
2011,10,15,19,59,7.10
2011,10,15,20,00,7.10
2011,10,15,20,01,7.00
2011,10,15,20,02,7.00
2011,10,15,20,03,6.90
2011,10,15,20,04,6.90
2011,10,15,20,05,6.90
2011,10,15,20,06,6.90
2011,10,15,20,07,6.80
2011,10,15,20,08,6.80
2011,10,15,20,09,6.80
2011,10,15,20,10,6.70
2011,10,15,20,11,6.70
2011,10,15,20,12,6.70
2011,10,15,20,13,6.70
2011,10,15,20,14,6.60
2011,10,15,20,15,6.60
2011,10,15,20,16,6.60
2011,10,15,20,17,6.60
2011,10,15,20,18,6.50
2011,10,15,20,19,6.50
2011,10,15,20,20,6.50
2011,10,15,20,21,6.40
2011,10,15,20,22,6.40
2011,10,15,20,23,6.40
2011,10,15,20,24,6.30
2011,10,15,20,25,6.30
2011,10,15,20,26,6.30
2011,10,15,20,27,6.30
2011,10,15,20,28,6.30
2011,10,15,20,29,6.30
2011,10,15,20,30,6.30
2011,10,15,20,31,6.20
2011,10,15,20,32,6.20
2011,10,15,20,33,6.20
2011,10,15,20,34,6.20
2011,10,15,20,35,6.10
2011,10,15,20,36,6.10
2011,10,15,20,37,6.10
2011,10,15,20,38,6.00
2011,10,15,20,39,6.00
2011,10,15,20,40,5.90
2011,10,15,20,41,5.90
2011,10,15,20,42,5.90
2011,10,15,20,43,5.90
2011,10,15,20,44,5.90
2011,10,15,20,45,5.90
2011,10,15,20,46,5.90
2011,10,15,20,47,5.80
2011,10,15,20,48,5.80
2011,10,15,20,49,5.80
2011,10,15,20,50,5.80
2011,10,15,20,51,5.80
2011,10,15,20,52,5.80
2011,10,15,20,53,5.80
2011,10,15,20,54,5.80
2011,10,15,20,55,5.80
2011,10,15,20,56,5.70
2011,10,15,20,57,5.70
2011,10,15,20,58,5.70
2011,10,15,20,59,5.70
2011,10,15,21,00,5.70
2011,10,15,21,01,5.80
2011,10,15,21,02,5.80
2011,10,15,21,03,5.80
2011,10,15,21,04,5.80
2011,10,15,21,05,5.80
2011,10,15,21,06,5.80
2011,10,15,21,07,5.80
2011,10,15,21,08,5.80
2011,10,15,21,09,5.80
2011,10,15,21,10,5.80
2011,10,15,21,11,5.80
2011,10,15,21,12,5.80
2011,10,15,21,13,5.80
2011,10,15,21,14,5.80
2011,10,15,21,15,5.80
2011,10,15,21,16,5.80
2011,10,15,21,17,5.80
2011,10,15,21,18,5.80
2011,10,15,21,19,5.80
2011,10,15,21,20,5.80
2011,10,15,21,21,5.80
2011,10,15,21,22,5.80
2011,10,15,21,23,5.80
2011,10,15,21,24,5.70
2011,10,15,21,25,5.70
2011,10,15,21,26,5.70
2011,10,15,21,27,5.70
2011,10,15,21,28,5.70
2011,10,15,21,29,5.70
2011,10,15,21,30,5.70
2011,10,15,21,31,5.70
2011,10,15,21,32,5.70
2011,10,15,21,33,5.70
2011,10,15,21,34,5.70
2011,10,15,21,35,5.70
2011,10,15,21,36,5.70
2011,10,15,21,37,5.70
2011,10,15,21,38,5.70
2011,10,15,21,39,5.70
2011,10,15,21,40,5.70
2011,10,15,21,41,5.70
2011,10,15,21,42,5.70
2011,10,15,21,43,5.70
2011,10,15,21,44,5.70
2011,10,15,21,45,5.60
2011,10,15,21,46,5.60
2011,10,15,21,47,5.60
2011,10,15,21,48,5.60
2011,10,15,21,49,5.60
2011,10,15,21,50,5.60
2011,10,15,21,51,5.70
2011,10,15,21,52,5.70
2011,10,15,21,53,5.70
2011,10,15,21,54,5.80
2011,10,15,21,55,5.80
2011,10,15,21,56,5.80
2011,10,15,21,57,5.80
2011,10,15,21,58,5.90
2011,10,15,21,59,5.90
2011,10,15,22,00,5.90
2011,10,15,22,01,5.90
2011,10,15,22,02,5.90
2011,10,15,22,03,5.90
2011,10,15,22,04,5.80
2011,10,15,22,05,5.80
2011,10,15,22,06,5.80
2011,10,15,22,07,5.80
2011,10,15,22,08,5.80
2011,10,15,22,09,5.80
2011,10,15,22,10,5.80
2011,10,15,22,11,5.80
2011,10,15,22,12,5.80
2011,10,15,22,13,5.80
2011,10,15,22,14,5.80
2011,10,15,22,15,5.80
2011,10,15,22,16,5.80
2011,10,15,22,17,5.80
2011,10,15,22,18,5.80
2011,10,15,22,19,5.80
2011,10,15,22,20,5.80
2011,10,15,22,21,5.80
2011,10,15,22,22,5.80
2011,10,15,22,23,5.80
2011,10,15,22,24,5.80
2011,10,15,22,25,5.80
2011,10,15,22,26,5.80
2011,10,15,22,27,5.80
2011,10,15,22,28,5.70
2011,10,15,22,29,5.70
2011,10,15,22,30,5.70
2011,10,15,22,31,5.70
2011,10,15,22,32,5.70
2011,10,15,22,33,5.70
2011,10,15,22,34,5.70
2011,10,15,22,35,5.70
2011,10,15,22,36,5.70
2011,10,15,22,37,5.70
2011,10,15,22,38,5.70
2011,10,15,22,39,5.70
2011,10,15,22,40,5.70
2011,10,15,22,41,5.60
2011,10,15,22,42,5.60
2011,10,15,22,43,5.60
2011,10,15,22,44,5.70
2011,10,15,22,45,5.70
2011,10,15,22,46,5.70
2011,10,15,22,47,5.70
2011,10,15,22,48,5.70
2011,10,15,22,49,5.70
2011,10,15,22,50,5.70
2011,10,15,22,51,5.70
2011,10,15,22,52,5.70
2011,10,15,22,53,5.70
2011,10,15,22,54,5.60
2011,10,15,22,55,5.60
2011,10,15,22,56,5.60
2011,10,15,22,57,5.60
2011,10,15,22,58,5.50
2011,10,15,22,59,5.50
2011,10,15,23,00,5.50
2011,10,15,23,01,5.40
2011,10,15,23,02,5.40
2011,10,15,23,03,5.40
2011,10,15,23,04,5.40
2011,10,15,23,05,5.40
2011,10,15,23,06,5.40
2011,10,15,23,07,5.40
2011,10,15,23,08,5.40
2011,10,15,23,09,5.40
2011,10,15,23,10,5.40
2011,10,15,23,11,5.30
2011,10,15,23,12,5.30
2011,10,15,23,13,5.30
2011,10,15,23,14,5.30
2011,10,15,23,15,5.20
2011,10,15,23,16,5.20
2011,10,15,23,17,5.20
2011,10,15,23,18,5.20
2011,10,15,23,19,5.10
2011,10,15,23,20,5.10
2011,10,15,23,21,5.10
2011,10,15,23,22,5.10
2011,10,15,23,23,5.10
2011,10,15,23,24,5.00
2011,10,15,23,25,5.00
2011,10,15,23,26,4.90
2011,10,15,23,27,4.90
2011,10,15,23,28,4.90
2011,10,15,23,29,4.80
2011,10,15,23,30,4.80
2011,10,15,23,31,4.80
2011,10,15,23,32,4.80
2011,10,15,23,33,4.80
2011,10,15,23,34,4.80
2011,10,15,23,35,4.70
2011,10,15,23,36,4.70
2011,10,15,23,37,4.70
2011,10,15,23,38,4.70
2011,10,15,23,39,4.60
2011,10,15,23,40,4.60
2011,10,15,23,41,4.50
2011,10,15,23,42,4.40
2011,10,15,23,43,4.40
2011,10,15,23,44,4.30
2011,10,15,23,45,4.30
2011,10,15,23,46,4.20
2011,10,15,23,47,4.20
2011,10,15,23,48,4.20
2011,10,15,23,49,4.20
2011,10,15,23,50,4.10
2011,10,15,23,51,4.10
2011,10,15,23,52,4.10
2011,10,15,23,53,4.00
2011,10,15,23,54,4.00
2011,10,15,23,55,4.00
2011,10,15,23,56,4.00
2011,10,15,23,57,3.90
2011,10,15,23,58,3.90
2011,10,15,23,59,3.90
